Weather observations for the past three days for
Kekaha, Pacific Missile Test Facility Barking Sands
Imperial (Metric)
Date Time (hst) Wind (mph) Vis. (mi.) Weather Sky Cond. Temperature (ºF) Relative Humidity Wind Chill (°F) Heat Index (°F) Pressure Precipitation (in)
Air Dwpt 6 hour altimeter (in) sea level (mb) 1 hr 3 hr 6 hr
Max. Min.
23 02:51 E 3 10.00 A Few Clouds FEW050 77 66.9 71% 79 30.02 1016.6
23 02:43 E 5 10.00 Partly Cloudy SCT050 77 66.9 71% 79 30.02 0.0
23 01:51 Calm 10.00 Partly Cloudy SCT060 78.1 66 84 77 67% 80 30.03 1017.1
23 00:51 E 3 10.00 Partly Cloudy SCT060 77 66 69% 79 30.04 1017.6
22 23:51 SE 3 10.00 Fair CLR 77 64.9 66% 79 30.06 1018.0
22 22:51 E 5 10.00 Fair CLR 78.1 64 62% 80 30.06 1018.2
22 21:51 Calm 10.00 A Few Clouds FEW030 80.1 66.9 64% 82 30.05 1017.8
22 20:51 Calm 10.00 Fair CLR 82 66 58% 84 30.03 1017.1
22 19:51 Calm 10.00 Fair CLR 84 71.1 90 84 65% 89 30.03 1017.0
22 18:51 SW 6 10.00 Fair CLR 84.9 71.1 63% 90 30.01 1016.5
22 17:51 SW 10 10.00 Fair CLR 87.1 71.1 59% 93 30 1016.0
22 16:51 W 10 10.00 Fair CLR 88 71.1 57% 94 30 1016.0
22 15:51 W 10 10.00 Fair CLR 89.1 70 53% 94 30.01 1016.3
22 14:51 NW 8 10.00 Fair CLR 89.1 70 53% 94 30.02 1016.9
22 13:51 W 10 10.00 Fair CLR 89.1 70 90 82 53% 94 30.04 1017.5
22 12:51 NW 12 10.00 A Few Clouds FEW050 FEW065 89.1 70 53% 94 30.06 1018.1
22 11:51 NW 12 10.00 Fair CLR 88 71.1 57% 94 30.07 1018.3
22 10:51 NW 9 10.00 Fair CLR 86 71.1 61% 92 30.08 1018.7
22 09:51 NW 9 10.00 Partly Cloudy FEW035 SCT043 84.9 71.1 63% 90 30.09 1019.1
22 09:45 W 9 10.00 Partly Cloudy FEW029 FEW035 SCT044 84.9 72 65% 91 30.09 0.0
22 09:12 NW 6 10.00 Mostly Cloudy BKN034 82.9 71.1 67% 88 30.09 0.0
22 08:51 NW 7 10.00 A Few Clouds FEW028 84.9 71.1 63% 90 30.09 1019.1
22 07:51 SE 3 10.00 Fair CLR 82 70 67% 86 30.09 1019.0
22 06:51 Calm 10.00 Fair CLR 0 0 0% 30.07 1018.6
22 05:51 Calm 10.00 Fair CLR 78.1 69.1 74% 80 30.05 1017.8
22 04:53 E 5 10.00 Mostly Cloudy SCT050 BKN065 79 69.1 72% 82 30.05 0.0
22 04:51 E 5 10.00 Mostly Cloudy BKN050 BKN065 79 69.1 72% 82 30.05 1017.6
22 04:13 E 3 10.00 Mostly Cloudy BKN050 75.9 68 77% 77 30.05 0.0
22 03:51 E 3 10.00 Partly Cloudy SCT055 75.9 66.9 74% 77 30.05 1017.7
22 02:51 NE 3 10.00 Partly Cloudy SCT050 79 68 69% 81 30.06 1018.0
22 02:32 E 6 10.00 Partly Cloudy SCT050 77 66.9 71% 79 30.06 0.0
22 02:23 E 3 10.00 Mostly Cloudy BKN050 78.1 66 67% 80 30.06 0.0
22 01:51 SE 5 10.00 Mostly Cloudy BKN055 78.1 66.9 84 75.9 69% 80 30.07 1018.3
22 00:51 E 3 10.00 Fair CLR 78.1 66.9 69% 80 30.08 1018.7
21 23:51 SE 5 10.00 Fair CLR 79 68 69% 81 30.1 1019.3
21 22:51 E 3 10.00 Fair CLR 79 68 69% 81 30.09 1019.2
21 21:51 SE 5 10.00 Fair CLR 82 71.1 69% 86 30.09 1019.2
21 20:51 N 6 10.00 Fair CLR 84 73 70% 90 30.08 1018.9
21 20:00 N 6 10.00 Mostly Cloudy SCT047 BKN055 84 72 67% 90 30.07 0.0
21 19:51 N 6 10.00 Mostly Cloudy BKN047 BKN055 84 72 90 84 67% 90 30.07 1018.3
21 19:47 N 6 10.00 Mostly Cloudy SCT047 BKN055 84 72 67% 90 30.07 0.0
21 18:51 NW 10 10.00 A Few Clouds FEW050 84.9 72 65% 91 30.05 1017.7
21 17:51 NW 9 10.00 Fair CLR 87.1 72 61% 94 30.03 1017.1
21 16:51 NW 10 10.00 Partly Cloudy SCT060 88 71.1 57% 94 30.03 1017.2
21 15:55 N 12 10.00 Mostly Cloudy BKN055 89.1 72 57% 96 30.04 0.0
21 15:51 N 10 10.00 Mostly Cloudy BKN050 90 72 56% 97 30.04 1017.4
21 14:51 NW 7 10.00 Mostly Cloudy BKN050 88 71.1 57% 94 30.05 1017.7
21 13:51 NW 9 10.00 A Few Clouds FEW060 89.1 71.1 90 84 55% 95 30.06 1018.0
21 12:51 NW 12 10.00 Fair CLR 89.1 71.1 55% 95 30.07 1018.3
21 11:51 NW 10 10.00 Fair CLR 89.1 70 53% 94 30.08 1018.8
21 10:51 N 13 10.00 Fair CLR 87.1 71.1 59% 93 30.08 1018.9
21 09:51 NW 7 10.00 Fair CLR 86 70 59% 91 30.08 1018.9
21 08:51 W 5 10.00 Fair CLR 84.9 69.1 59% 89 30.08 1018.7
21 07:51 Calm 10.00 Fair CLR 84 69.1 84 75.9 61% 88 30.07 1018.5
21 06:51 E 3 10.00 Fair CLR 77 66 69% 79 30.06 1018.2
21 05:51 E 5 10.00 Fair CLR 75.9 66 72% 77 30.05 1017.7
21 04:51 E 5 10.00 A Few Clouds FEW080 77 66 69% 79 30.04 1017.4
21 03:51 E 5 10.00 Fair CLR 77 64.9 66% 79 30.04 1017.5
21 02:51 E 5 10.00 Fair CLR 77 64.9 66% 79 30.05 1017.6
21 01:51 E 5 10.00 Fair CLR 77 66 84 77 69% 79 30.05 1017.8
21 00:51 E 5 10.00 Fair CLR 77 66 69% 79 30.06 1018.1
20 23:51 E 3 10.00 Fair CLR 78.1 66 67% 80 30.07 1018.6
20 22:51 E 5 10.00 Fair CLR 78.1 66.9 69% 80 30.08 1018.8
20 21:51 E 5 10.00 Fair CLR 79 68 69% 81 30.07 1018.5
20 20:51 Calm 10.00 Partly Cloudy SCT055 84 69.1 61% 88 30.06 1018.2
20 20:26 Calm 10.00 Mostly Cloudy BKN050 82.9 70 65% 87 30.06 0.0
20 19:51 NW 3 10.00 Fair CLR 82.9 70 89.1 82.9 65% 87 30.05 1017.6
20 18:51 NW 5 10.00 Fair CLR 84.9 69.1 59% 89 30.03 1016.9
20 17:51 NW 7 10.00 Fair CLR 86 69.1 57% 90 30.01 1016.3
20 16:51 NW 9 10.00 Fair CLR 87.1 70 57% 92 30.01 1016.3
20 15:51 N 12 10.00 Fair CLR 88 71.1 57% 94 30.01 1016.3
20 14:51 NW 8 10.00 Fair CLR 88 70 55% 93 30.01 1016.5
20 13:51 W 12 10.00 Fair CLR 88 69.1 89.1 82 54% 92 30.03 1016.9
20 12:51 W 12 10.00 Fair CLR 88 69.1 54% 92 30.04 1017.4
20 11:51 W 10 10.00 A Few Clouds FEW055 86 69.1 57% 90 30.04 1017.6
20 10:51 NW 9 10.00 Fair CLR 87.1 66 50% 89 30.05 1017.7
20 09:51 NW 7 10.00 Fair CLR 84.9 66 53% 87 30.05 1017.9
20 08:51 W 6 10.00 Fair CLR 84 69.1 61% 88 30.06 1018.1
20 07:51 Calm 10.00 Fair CLR 82.9 64.9 82.9 73 55% 85 30.05 1017.7
20 06:51 E 6 10.00 Fair CLR 75 61 62% 77 30.04 1017.5
20 05:51 E 5 10.00 Fair CLR 73 61 66% 30.04 1017.3
20 04:51 E 5 10.00 Fair CLR 73.9 61 64% 30.03 1017.1
20 03:51 E 5 10.00 Fair CLR 75 61 62% 77 30.03 1017.1
Date Time (hst) Wind (mph) Vis. (mi.) Weather Sky Cond. Air Dwpt Max. Min. Relative Humidity Wind Chill (°F) Heat Index (°F) altimeter (in) sea level (mb) 1 hr 3 hr 6 hr
6 hour
Temperature (ºF) Pressure Precipitation (in)